Location: Newark
(25.0000°N, 73.5000°E)
Time: 04:38:45
(UTC+00:00)

RS-15 - Pass Details

Date: 29 February 2020
Orbit: 1898 x 2146 km, 64.8° (Epoch: 04 April)

Event Time Altitude Azimuth Distance (km) Brightness Sun altitude
Rises 15:46:40 0° 261° (W) 5,339 11.2 -36.7°
Reaches altitude 10° 15:52:09 10° 282° (WNW) 4,310 10.6 -37.9°
Maximum altitude 15:58:00 15° 315° (NW) 3,852 10.0 -39.2°
Drops below altitude 10° 16:03:52 10° 349° (N) 4,286 10.0 -40.5°
Sets 16:09:24 0° 11° (N) 5,293 10.3 -41.7°
